Regional Weather Roundup
Issued by NWS Sterling, VA

Home | Current Version | Previous Version | Text Only | Print | Product List | Glossary On
Versions: 1 2 3 4 5 6 7 8 9 10 11 12 13 14 15 16 17 18 19 20 21 22 23 24 25 26 27 28 29 30 31 32 33 34 35 36 37 38 39 40 41 42 43 44 45 46 47 48 49 50
000
ASUS41 KLWX 080710
RWRLWX

REGIONAL WEATHER ROUNDUP
NATIONAL WEATHER SERVICE BALTIMORE MD/WASHINGTON DC
200 AM EST MON FEB 08 2016

Note: "FAIR" indicates few or no clouds below 12,000 feet
with no significant weather and/or obstructions to visibility.
 TC=TEMPERATURE CELSIUS

 * =Non NWS site. Station does not report precipitation (e.g. rain,
    snow, etc.), thunder, or fog.

DCZ001-MDZ009-015-VAZ040>042-051-053>054-080800-
WASHINGTON METRO

CITY           SKY/WX    TMP DP  RH WIND       PRES   REMARKS
WASHINGTON NAT MOCLDY    38  23  55 N13       29.80F
DULLES         MOCLDY    33  21  61 NW6       29.81F
ANDREWS AFB    CLOUDY    37  22  56 N12       29.76F WCI  29
FT BELVOIR     FAIR      38  21  49 NW8       29.79F
QUANTICO       FAIR      39  22  50 N12       29.81F
COLLEGE PARK*  FAIR      37  23  56 N6        29.79F
LEESBURG*      FAIR      32  28  86 N7        29.83F
MANASSAS*      FAIR      32  25  74 NW7       29.81F
GAITHERSBURG*  CLOUDY    34  19  55 CALM      29.83F

$$

MDZ006>007-011-014-080800-
BALTIMORE METRO

CITY           SKY/WX    TMP DP  RH WIND       PRES   REMARKS
BWI AIRPORT    MOCLDY    37  20  50 N8        29.78F
MD SCIENCE CTR   N/A     39  21  48 MISG      29.79F
MARTIN STATE   MOCLDY    37  27  65 NW6       29.80F
ANNAPOLIS      CLOUDY    39  25  57 N9        29.76F
FORT MEADE*    PTCLDY    36  23  60 N3        29.81F

$$

MDZ012-015-019>023-080800-
MARYLAND EASTERN SHORE

CITY           SKY/WX    TMP DP  RH WIND       PRES   REMARKS
OCEAN CITY     CLOUDY    40  33  76 N21G28    29.62F
SALISBURY      CLOUDY    39  31  72 N15G23    29.65F
BAY BRIDGE AP*   N/A     37  27  65 N10G18    29.76F
CAMBRIDGE*     CLOUDY    37  27  65 N13G20    29.71F
EASTON*        CLOUDY    38  25  59 N13       29.77F

$$

MDZ017>025-080800-
SOUTHERN MARYLAND

CITY           SKY/WX    TMP DP  RH WIND       PRES   REMARKS
PATUXENT RIVER CLOUDY    39  25  57 N17       29.72F
ST INIGOES     CLOUDY    40  24  53 NW8       29.71F
LEONARDTOWN*   CLOUDY    37  21  52 N5        29.74F

$$

MDZ003>005-080800-
NORTH CENTRAL MARYLAND

CITY           SKY/WX    TMP DP  RH WIND       PRES   REMARKS
FREDERICK*     CLOUDY    27  23  86 CALM      29.87S
HAGERSTOWN APT CLOUDY    29  20  69 CALM      29.82F
WESTMINSTER*   CLOUDY    32  27  80 N5        29.79F

$$

MDZ501>502-080800-
WESTERN MARYLAND

CITY           SKY/WX    TMP DP  RH WIND       PRES   REMARKS
OAKLAND*       PTCLDY    32  21  64 CALM      29.75F
CUMBERLAND*    PTCLDY    28  27  93 CALM      29.88F

$$

VAZ025>031-080800-
SHENANDOAH VALLEY

CITY           SKY/WX    TMP DP  RH WIND       PRES   REMARKS
WINCHESTER*    FAIR      27  23  86 CALM      29.82F
FRONT ROYAL*   FAIR      27  23  86 CALM      29.82F
LURAY*         FAIR      25  25 100 CALM      29.82F
NEW MARKET*    FAIR      23  22  93 CALM      29.83S
STAUNTON*      FAIR      27  25  91 CALM      29.83F
WAYNESBORO*    FAIR      26  22  87 CALM      29.80F

$$

WVZ021-048>050-054>055-080800-
EASTERN WEST VIRGINIA PANHANDLE

CITY           SKY/WX    TMP DP  RH WIND       PRES   REMARKS
MARTINSBURG    FAIR      22  19  89 CALM      29.82F
PETERSBURG*    FAIR      25  24  93 CALM      29.84F

$$

VAZ036>039-050-080800-
CENTRAL FOOTHILLS

CITY           SKY/WX    TMP DP  RH WIND       PRES   REMARKS
CHARLOTTESVILL FAIR      30  22  72 W5        29.80F
CULPEPER*      FAIR      27  22  79 N3        29.82F
ORANGE*        FAIR      36  23  60 NW7       29.81F
GORDONSVILLE*  FAIR      32  23  67 S3        29.79F
WARRENTON*     FAIR      33  25  71 N5        29.79F

$$

VAZ055>057-080800-
NORTH AND CENTRAL PIEDMONT

CITY           SKY/WX    TMP DP  RH WIND       PRES   REMARKS
FREDERICKSBRG* FAIR      37  24  60 NW8       29.78F
STAFFORD*      FAIR      32  23  68 NW9       29.83F WCI  25

$$

NCZ024-NYZ072-PAZ021-071-VAZ022-071-080800-
OTHER REGIONAL OBSERVATIONS

CITY           SKY/WX    TMP DP  RH WIND       PRES   REMARKS
NEW YORK CITY  MOCLDY    38  20  48 NE14      29.84F
PHILADELPHIA   CLOUDY    40  23  50 N17G24    29.78F
PITTSBURGH     PTCLDY    35  22  58 SE3       29.76F
ROANOKE        FAIR      27  23  85 N3        29.83F
RICHMOND       MOCLDY    38  21  50 N15       29.76F
RALEIGH        PTCLDY    37  21  52 CALM      29.80F

$$

ANZ530>537-080800-
MARINE OBSERVATIONS

STATION/POSITION TIME  TEMP    WIND        PRES
                       AIR SEA DIR/SP/G
                 (UTC) (F)     (DEG/KT/KT) (MB)
THOMAS PT LIGHT  0700   39 38   10/ 19/ 22 1007.8
BALT KEY BRIDGE  0600   39     350/ 10/ 11 1009.5F
COVE POINT       0600   39      10/ 15/ 23 1008.3F
LEWISETTA        0600   41 41  360/ 12/ 17 1006.7F
SOLOMONS ISLAND  0600   40 41  350/ 13/ 19   N/A

$$




USA.gov is the U.S. government's official web portal to all federal, state and local government web resources and services.